sat.trackr.live / text

‹ back to catalog

KUIPER-00558

NORAD 69765 · 2026-151C

PAYLOAD ACTIVE UNKNOWN

§ Identity

Operator
Country
US
Launch date
2026-07-02
Launch site
AFETR
Launch vehicle
Mass (kg)
RCS (m²)

External: N2YO · Heavens-Above · Gunter

§ Orbital elements

Epoch: 2026-09-19T23:06:00.980640Z

Period
97.30 min
Inclination
51.8948°
Eccentricity
0.0000530
Mean motion
14.79949209 rev/d
Perigee alt
629.1 km
Apogee alt
629.9 km
Semi-major
7,007.6 km
B*
7.7471e-4
RAAN
236.5632°
Arg perigee
38.5613°
Mean anomaly
321.5387°
Rev number
1,202

§ Raw data

KUIPER-005581 69765U 26151C   26262.96251135  .00005692  00000+0  77471-3 0  99982 69765  51.8948 236.5632 0000530  38.5613 321.5387 14.79949209 12029

JSON: /api/v1/satellites/69765 · /tle

For live sub-satellite position, see the globe view (requires WebGL).

§ Visibility from observer

Set your observer location to see the next 7 days of passes ≥ 10°. The values pass through the URL so the page stays shareable.

No JS? Fill the form by hand. The geolocation button needs JavaScript.